Regional Weather Roundup
Issued by NWS

Home | Current Version | Previous Version | Graphics & Text | Print | Product List | Glossary On
Versions: 1 2 3 4 5 6 7 8 9 10 11 12 13 14 15 16 17 18 19 20 21 22 23 24 25 26 27 28 29 30 31 32 33 34 35 36 37 38 39 40 41 42 43 44 45 46 47 48 49 50
000
ASUS43 KLSX 070459
RWRMO

WEATHER SUMMARY FOR MISSOURI
NATIONAL WEATHER SERVICE SPRINGFIELD MO
1100 PM CST FRI MAR 06 2015

NOTE: "FAIR" INDICATES FEW OR NO CLOUDS BELOW 12,000 FEET WITH NO
       SIGNIFICANT WEATHER AND/OR OBSTRUCTIONS TO VISIBILITY.
       CURRENT SKY AND/OR WEATHER CONDITIONS ARE NOT AVAILABLE FOR
       CHILLICOTHE AND FARMINGTON.

MOZ001>031-035>038-043-044-053-054-070600-
...NORTHERN AND WESTERN MISSOURI...

CITY           SKY/WX    TMP DP  RH WIND       PRES   REMARKS
KANSAS CTY INT CLEAR     46  28  49 SW16      30.20F
KANSAS C DTWN  CLEAR     50  27  40 SW16      30.21F
LEE`S SUMMIT   CLEAR     42  27  55 SW10      30.23S
ST JOSEPH      CLEAR     42  27  55 SW12      30.18S
CHILLICOTHE      N/A     42  29  59 S6        30.19F
KIRKSVILLE     CLEAR     42  31  64 SW12      30.18F

$$
MOZ066>068-077>081-088>096-101>105-070600-
...SOUTHWEST MISSOURI...

CITY           SKY/WX    TMP DP  RH WIND       PRES   REMARKS
SPRINGFIELD    CLEAR     36  25  64 S10       30.34S WCI  28
JOPLIN         CLEAR     42  25  50 MISG      30.34F

$$
MOZ032>034-039>042-045>050-055>058-069>072-070600-
...CENTRAL MISSOURI...

CITY           SKY/WX    TMP DP  RH WIND       PRES   REMARKS
COLUMBIA       CLEAR     41  28  60 SW14      30.27S
JEFFERSON CITY CLEAR     44  26  49 S7        30.29F
ROLLA          CLEAR     37  25  61 S12       30.30S WCI  29
SEDALIA        CLEAR     43  28  55 SW14      30.27S
OSAGE BEACH    CLEAR     43  25  49 SW10      30.31S

$$
MOZ051-052-059>065-070600-
...EAST CENTRAL MISSOURI...

CITY           SKY/WX    TMP DP  RH WIND       PRES   REMARKS
ST LOUIS INTL  CLEAR     37  22  54 S7        30.31S
SPIRIT OF STL  CLEAR     40  24  53 SW9       30.30S
ST CHARLES     CLEAR     27  23  85 E6        30.30S WCI  20

$$
MOZ072>076-082>087-097>100-106>115-070600-
...SOUTH CENTRAL AND SOUTHEAST MISSOURI...

CITY           SKY/WX    TMP DP  RH WIND       PRES   REMARKS
CAPE GIRARDEAU CLEAR     16  12  84 CALM      30.43F
FARMINGTON     CLEAR     28  19  69 S8        30.38F WCI  20
POPLAR BLUFF   CLEAR     23  17  78 CALM      30.43S
WEST PLAINS    CLEAR     34  22  61 SW8       30.38S WCI  27

$$



USA.gov is the U.S. government's official web portal to all federal, state and local government web resources and services.